Regional Weather Roundup
Issued by NWS

Home | Current Version | Previous Version | Text Only | Print | Product List | Glossary On
Versions: 1 2 3 4 5 6 7 8 9 10 11 12 13 14 15 16 17 18 19 20 21 22 23 24 25 26 27 28 29 30 31 32 33 34 35 36 37 38 39 40 41 42 43 44 45 46 47 48 49 50
000
ASUS42 KKEY 062010
RWRKEY

FLORIDA REGIONAL WEATHER ROUNDUP FOR THE FLORIDA KEYS
NATIONAL WEATHER SERVICE KEY WEST FLORIDA
300 PM EST FRI MAR 06 2015

...SOUTH FLORIDA AND THE KEYS...

CITY           SKY/WX    TMP DP  RH WIND       PRES   REMARKS
FORT MYERS     SUNNY     84  65  52 W9        30.13F
SW REGIONAL AP SUNNY     84  65  52 W7        30.13F
NAPLES         SUNNY     81  67  62 W10       30.14F
MIAMI          MOSUNNY   84  65  52 SE8       30.13F
WEST KENDALL   SUNNY     83  65  54 E8        30.12F
HOMESTEAD      SUNNY     83  69  63 E9        30.12F
MARATHON       PTSUNNY   83  73  72 VRB5      30.12F
BOCA CHICA NAS MOSUNNY   81  70  69 VRB7      30.13F
KEY WEST INTL  MOSUNNY   78  74  87 N13       30.13F

...INTERNATIONAL WEATHER...

CITY           SKY/WX    TMP DP  RH WIND       PRES   REMARKS
NASSAU BAHAMAS MOSUNNY   82  70  65 S7        30.14F
CANCUN MEXICO  PTSUNNY   84  72  65 E12       30.11F
COZUMEL MEXICO MOSUNNY   82  72  69 NE17      30.10F

ADJACENT COASTAL WATERS...

STATION/POSITION TIME  SKY/WX   TEMP    WIND        PRES    WAVE
                                AIR SEA DIR/SP/G            HT/PER
                 (UTC)          (F)     (DEG/KT/KT) (MB)    (FT/S)
PULASKI SHOAL LI 1900            72      40/ 10/ 10 1020.7F
SAND KEY         1950            75      10/ 11/ 12 1020.3F
SOMBRERO KEY     2000            79     100/  5/  6 1020.9F
LONG KEY         1900            77 80   60/  3/  6 1021.2F
MOLASSES REEF    2000            77 77  100/  5/  6 1020.3F
FOWEY ROCKS      NOT AVBL
Buoy 42080       NOT AVBL

$$


USA.gov is the U.S. government's official web portal to all federal, state and local government web resources and services.